This is the latest recevied weather packets stored in our database for station/object K8RRT. If no packets are shown the sender has not sent any weather packets the latest 10 day(s).
| Time | Temp. | Humidity | Pressure | Rain* | Wind** | Luminosity | Snow |
|---|---|---|---|---|---|---|---|
| 1777897803 | 12.78° C | 66% | 1009.4 hPa | 0 mm | - | 106 W/m² | - |
| 1777897499 | 12.78° C | 66% | 1009.5 hPa | 0 mm | - | 101 W/m² | - |
| 1777897195 | 12.78° C | 65% | 1009.3 hPa | 0 mm | - | 74 W/m² | - |
| 1777896890 | 12.22° C | 66% | 1009.4 hPa | 0 mm | - | 40 W/m² | - |
| 1777896588 | 12.22° C | 65% | 1009.4 hPa | 0 mm | - | 37 W/m² | - |
| 1777896285 | 12.22° C | 65% | 1009.5 hPa | 0 mm | - | 43 W/m² | - |
| 1777895984 | 12.22° C | 66% | 1009.5 hPa | 0 mm | - | 74 W/m² | - |
| 1777895681 | 12.22° C | 67% | 1009.3 hPa | 0 mm | - | 76 W/m² | - |
| 1777895378 | 12.22° C | 66% | 1009.4 hPa | 0 mm | - | 75 W/m² | - |
| 1777895076 | 11.67° C | 68% | 1009.4 hPa | 0 mm | - | 62 W/m² | - |
| 1777894772 | 11.67° C | 69% | 1009.4 hPa | 0 mm | - | 65 W/m² | - |
| 1777894469 | 10.56° C | 75% | 1009.3 hPa | 0 mm | - | 69 W/m² | - |
| 1777894167 | 10.56° C | 81% | 1009.4 hPa | 0 mm | - | 74 W/m² | - |
| 1777893864 | 9.44° C | 82% | 1009.4 hPa | 0 mm | - | 79 W/m² | - |
| 1777893560 | 8.89° C | 81% | 1009.2 hPa | 0 mm | - | 69 W/m² | - |
| 1777893257 | 8.33° C | 81% | 1008.9 hPa | 0 mm | - | 55 W/m² | - |
| 1777892953 | 8.33° C | 81% | 1009 hPa | 0 mm | - | 42 W/m² | - |
| 1777892650 | 7.78° C | 85% | 1009 hPa | 0 mm | - | 29 W/m² | - |
| 1777892345 | 7.22° C | 88% | 1009 hPa | 0 mm | - | 25 W/m² | - |
| 1777892042 | 6.67° C | 90% | 1009.2 hPa | 0 mm | - | 18 W/m² | - |
| 1777891740 | 6.67° C | 90% | 1009.1 hPa | 0 mm | - | 10 W/m² | - |
| 1777891435 | 6.11° C | 92% | 1009 hPa | 0 mm | - | 8 W/m² | - |
| 1777891131 | 6.11° C | 93% | 1009.1 hPa | 0 mm | - | 6 W/m² | - |
| 1777890826 | 6.11° C | 94% | 1009.1 hPa | 0 mm | - | 3 W/m² | - |
| 1777890522 | 6.11° C | 95% | 1009.2 hPa | 0 mm | - | 1 W/m² | - |
* Rain latest hour (hover to see other rain measurements)
** Current wind speed in m/s (hover to see current wind gust speed)